GFSNIL_925_spd_000.txt.gz
Wind_Speed
22 20 17 14 12 8 5 3 3 5 7 9 11 13 15 17 19 20 22 21 22 22
20 18 16 14 10 7 4 2 4 6 8 11 13 15 17 20 21 23 23 24 21 21
19 17 15 12 9 6 3 2 5 7 10 12 15 17 20 22 23 23 24 23 20 24
18 16 13 10 7 4 1 4 6 9 12 15 18 20 22 23 24 23 24 22 22 22
17 15 11 8 5 2 3 6 8 11 14 17 20 22 23 24 22 24 24 25 21 22
15 12 9 6 3 2 5 7 9 12 16 20 21 23 24 21 24 26 25 23 18 21
13 10 7 4 2 4 6 9 12 15 18 20 22 23 21 25 26 26 26 21 19 21
11 8 5 2 2 4 7 10 14 17 20 21 23 21 24 25 26 27 27 25 22 25
9 6 3 1 3 6 9 13 17 19 20 22 23 22 23 25 27 29 28 29 27 27
7 5 2 2 4 8 12 16 18 20 21 23 25 21 23 25 27 26 23 25 27 27
6 3 1 3 6 10 14 17 19 21 22 23 23 21 23 26 24 25 27 25 24 23
4 2 2 5 9 12 16 18 20 21 23 23 22 21 23 24 25 23 25 23 23 24
2 2 4 7 11 14 15 17 20 23 22 21 21 22 23 23 23 22 24 24 24 26
2 3 6 8 12 15 17 20 23 23 22 21 20 22 22 21 23 23 26 24 24 25

GFSNIL_925_spd_003.txt.gz
Wind_Speed
25 25 22 19 15 10 7 4 2 2 4 6 7 10 12 15 16 16 17 17 18 14
23 22 21 17 13 10 6 3 1 3 5 7 9 12 14 16 18 19 18 19 18 15
22 19 17 15 12 8 5 2 1 4 6 9 11 13 16 17 18 18 19 20 19 19
20 18 15 12 10 6 3 1 4 7 9 11 14 16 17 18 17 19 21 21 20 19
19 16 13 11 7 4 2 3 5 8 10 13 15 17 18 17 19 21 22 23 22 20
17 14 12 9 6 3 2 4 6 9 12 15 16 17 16 19 20 21 22 22 22 23
15 12 10 7 4 2 3 5 8 11 13 14 16 16 18 19 21 22 23 23 23 23
14 11 9 6 3 2 4 7 10 12 14 15 17 18 18 20 21 22 22 21 21 22
13 10 7 4 2 2 6 9 11 13 15 17 19 17 17 18 22 21 23 26 24 23
11 9 5 3 2 5 8 11 14 16 17 19 19 15 17 19 19 22 22 24 25 25
10 7 4 2 3 6 10 13 15 17 19 19 18 17 18 20 20 21 22 24 25 26
7 5 3 3 5 9 12 14 16 18 18 18 18 18 19 21 22 23 24 27 25 24
6 5 3 5 7 10 12 14 17 18 17 16 18 20 19 20 22 22 24 22 21 21
6 5 4 5 9 11 14 16 17 18 17 16 19 21 19 19 23 24 23 23 22 23

GFSNIL_925_spd_006.txt.gz
Wind_Speed
31 31 27 22 17 13 10 9 7 5 4 4 5 6 7 10 11 12 12 11 11 11
28 26 24 18 14 12 10 8 6 4 3 4 5 7 9 11 13 13 12 13 14 14
25 23 21 18 15 12 9 6 4 3 3 4 6 8 10 12 12 13 15 16 17 17
24 22 20 17 15 11 8 5 3 3 3 6 8 10 11 12 13 16 18 18 20 20
24 21 19 16 13 10 7 4 3 3 5 7 10 11 12 13 15 17 20 21 21 23
23 20 18 15 11 8 5 4 3 4 7 10 11 13 13 14 16 17 18 19 21 22
21 18 16 13 10 6 5 3 4 6 8 10 12 14 15 15 15 17 18 21 22 23
19 17 15 11 8 6 4 4 6 7 9 12 15 17 14 15 16 18 20 21 20 20
18 16 13 10 7 5 5 5 7 9 13 15 16 16 14 16 19 17 22 22 23 23
17 14 11 8 6 5 5 7 9 12 14 16 16 14 16 17 19 19 21 23 26 27
15 13 10 7 6 4 6 9 12 15 16 17 17 15 17 19 20 20 21 24 26 26
13 12 9 6 4 5 8 10 13 15 17 17 17 18 19 20 21 22 24 26 22 23
12 10 8 5 4 7 9 12 14 17 17 15 18 20 19 20 21 22 23 20 20 19
11 9 6 4 5 8 11 14 15 17 18 18 20 21 20 19 21 24 23 21 20 23

GFSNIL_925_spd_009.txt.gz
Wind_Speed
29 35 36 33 28 23 19 17 13 9 6 4 3 4 5 6 7 7 6 7 8 10
32 36 34 28 24 21 18 16 12 8 5 3 2 4 5 7 7 7 8 10 11 12
31 33 31 26 23 20 17 14 11 7 4 3 3 4 6 7 7 9 10 10 12 12
32 31 28 24 21 18 16 12 9 6 4 2 3 5 7 7 8 10 12 12 12 14
32 30 27 24 20 17 14 11 8 5 3 3 4 6 7 9 10 11 12 14 15 15
31 30 26 23 19 16 13 10 7 4 3 4 6 7 8 10 12 11 13 15 15 16
29 27 25 21 18 15 11 8 6 3 3 5 8 9 11 11 12 13 15 17 19 16
27 25 23 20 16 13 10 7 4 3 4 7 10 11 11 12 14 15 17 18 19 16
26 24 21 18 15 12 9 5 3 4 7 10 12 12 11 13 14 16 15 17 17 20
25 22 19 16 14 10 6 4 4 6 10 11 12 11 13 14 15 15 16 18 20 20
23 21 18 15 11 7 4 4 6 9 10 12 13 12 14 15 14 16 17 20 21 20
21 20 16 12 9 5 4 6 8 9 12 13 14 15 15 16 16 16 17 20 20 19
18 16 13 10 6 5 5 6 9 11 12 12 14 17 16 16 16 17 20 19 17 17
16 14 11 8 5 4 5 8 9 12 13 14 16 16 16 16 17 19 21 20 21 22

GFSNIL_925_spd_012.txt.gz
Wind_Speed
32 31 34 28 24 20 17 15 14 11 9 8 6 5 3 2 1 3 4 5 6 8
31 28 28 24 22 19 17 16 14 12 9 7 5 4 2 1 3 3 4 6 8 9
27 24 31 25 21 19 17 16 14 11 9 7 4 2 1 2 3 4 5 7 9 11
27 29 28 22 20 18 17 15 13 10 8 5 3 1 2 3 4 6 7 8 9 12
27 27 23 21 18 17 16 13 11 9 7 4 2 1 2 4 6 7 9 10 11 13
26 24 22 20 18 16 14 12 10 7 5 3 1 2 4 6 8 9 10 11 13 15
25 23 21 19 17 15 12 10 8 6 4 1 2 3 5 7 9 11 12 13 14 16
24 22 21 19 16 14 11 8 6 4 2 1 3 4 7 8 11 13 14 15 16 16
24 22 19 18 16 13 10 7 4 2 0 3 4 8 7 9 12 14 15 16 17 18
22 21 18 16 14 11 8 5 3 0 2 4 5 7 9 11 13 14 15 16 18 19
21 19 17 14 12 9 6 3 1 2 3 5 6 9 11 12 13 14 15 16 19 20
19 18 15 13 10 7 4 1 1 2 5 6 7 9 11 13 14 14 16 17 19 19
16 15 13 11 8 5 2 0 2 4 5 6 8 10 12 14 14 16 18 19 19 19
15 14 11 9 6 3 1 2 4 5 6 6 9 10 13 13 14 16 20 21 21 21

GFSNIL_925_spd_015.txt.gz
Wind_Speed
26 26 28 30 32 27 24 19 18 15 12 11 9 6 4 2 1 3 4 5 6 7
25 26 30 29 26 23 20 19 17 15 12 10 8 5 3 2 3 4 5 6 8 9
28 27 28 29 25 24 20 19 17 14 11 9 6 4 2 3 4 5 7 7 9 10
30 29 30 27 28 25 21 19 17 14 11 8 5 3 2 4 5 7 8 9 10 11
33 30 29 27 26 23 21 17 16 13 10 7 4 1 3 5 7 9 10 11 11 13
31 30 28 26 26 22 20 17 14 12 9 6 3 1 4 6 9 10 12 12 13 14
30 28 27 25 23 20 18 16 13 10 8 5 2 1 4 7 10 12 13 14 15 15
30 27 25 24 22 19 16 14 12 9 6 4 1 2 6 8 11 13 15 15 16 16
28 26 25 23 21 17 14 12 10 7 4 2 0 6 6 8 11 14 16 16 16 17
28 27 24 22 19 15 11 10 8 5 2 0 2 8 7 10 12 14 15 15 16 17
28 25 22 19 16 12 9 8 5 3 1 2 4 10 9 11 13 14 15 15 16 17
24 22 19 17 14 10 8 6 3 1 2 4 5 8 9 12 13 14 16 16 17 18
20 19 17 15 12 9 7 4 2 2 3 5 6 7 9 12 12 15 16 17 18 18
19 18 15 13 10 7 5 3 1 3 5 6 7 9 10 11 12 14 17 18 18 20

GFSNIL_925_spd_018.txt.gz
Wind_Speed
32 36 36 36 33 32 32 31 27 23 20 18 15 12 9 6 4 3 1 3 5 6
35 36 35 33 31 30 31 31 27 24 21 17 14 11 8 5 3 2 3 5 5 7
34 35 35 33 31 31 32 30 29 25 20 17 13 10 7 5 3 3 3 5 7 9
33 32 32 31 32 34 32 31 27 24 20 16 13 9 6 4 3 4 5 7 9 10
31 32 31 33 34 33 31 28 25 21 18 15 12 7 5 4 4 4 7 9 10 12
31 31 31 32 33 31 29 26 22 20 17 12 9 5 3 4 5 6 8 9 10 13
28 29 32 34 32 33 29 26 22 19 15 10 6 3 3 3 5 7 9 11 12 13
29 30 33 34 33 29 27 24 20 16 12 8 6 4 5 6 7 8 10 12 13 13
30 30 33 33 32 28 25 20 18 14 11 7 4 2 5 5 9 10 11 14 14 16
30 30 16 31 29 24 23 19 15 11 8 5 1 4 6 6 10 11 11 14 16 16
34 23 24 25 25 22 19 16 12 9 5 3 2 5 7 8 10 11 12 14 16 15
20 22 25 24 23 20 16 12 9 6 2 1 1 4 6 9 12 12 13 14 15 16
27 22 25 23 20 16 13 10 6 3 1 2 3 2 6 8 11 13 14 16 16 16
25 22 20 20 16 12 10 8 4 1 1 3 3 5 6 8 12 13 16 17 18 19

GFSNIL_925_spd_021.txt.gz
Wind_Speed
41 41 38 39 37 34 35 36 36 34 30 26 23 19 15 13 10 7 6 4 3 4
39 38 38 37 36 34 33 37 37 33 29 25 21 17 14 12 10 6 4 3 3 5
38 37 36 37 33 31 33 34 36 31 27 22 20 17 13 11 8 5 4 3 5 7
36 35 35 37 34 31 32 36 35 30 26 24 20 16 12 9 7 4 4 4 6 8
34 34 33 32 31 33 36 34 32 28 26 22 18 14 11 9 6 4 4 5 7 9
32 32 29 32 33 35 35 34 30 29 25 21 17 13 10 7 4 3 4 5 7 9
27 28 32 32 33 36 36 35 32 27 24 19 15 12 9 5 4 3 4 6 7 9
27 28 29 32 33 34 34 33 30 26 22 17 13 9 6 3 1 3 6 7 8 8
32 32 32 31 26 28 27 29 25 21 18 15 10 7 3 1 3 5 7 9 10 11
31 31 30 32 28 25 23 18 17 15 13 11 8 5 3 4 6 7 8 10 12 13
34 32 31 29 25 20 22 16 14 11 9 9 8 5 3 4 7 8 8 9 10 13
31 31 29 26 24 20 20 16 13 9 8 8 7 4 4 6 9 11 10 10 12 13
25 24 28 25 23 19 17 14 11 8 6 6 5 3 4 5 9 12 11 13 14 14
21 23 23 22 19 17 14 12 9 8 5 3 4 3 3 6 8 10 12 15 17 17

GFSNIL_925_spd_024.txt.gz
Wind_Speed
42 43 43 44 42 41 39 41 40 37 34 33 29 26 22 18 15 12 10 9 6 5
41 40 41 41 39 36 35 36 38 37 35 32 28 25 22 19 16 11 9 8 6 5
40 42 41 39 37 36 35 35 39 39 34 32 28 23 21 17 14 12 9 7 6 6
36 39 38 36 35 36 34 36 39 38 35 33 27 24 20 15 13 11 9 6 6 6
35 36 33 35 35 37 36 35 37 38 36 31 28 24 17 16 14 10 9 6 6 6
31 33 33 32 34 33 35 35 36 37 35 31 26 21 19 16 12 9 6 5 6 6
27 26 29 29 30 33 33 34 34 32 27 22 19 17 13 12 10 7 5 4 6 7
27 28 31 30 28 28 26 27 25 24 24 21 18 13 10 8 6 4 3 5 5 6
29 30 31 31 33 32 30 28 28 24 19 16 14 10 8 5 3 2 2 4 4 6
30 32 32 34 33 31 30 26 21 18 17 13 11 8 4 2 1 1 2 4 5 6
31 33 35 33 32 30 26 25 22 16 13 10 7 6 5 1 2 3 4 4 6 8
35 34 33 30 31 27 25 20 16 14 12 12 10 5 2 1 3 6 5 5 8 10
28 29 29 28 26 21 19 18 16 13 9 7 7 5 2 4 5 7 8 9 11 12
29 29 27 24 22 19 19 16 13 10 8 5 4 4 2 4 7 6 8 14 17 16

GFSNIL_925_spd_027.txt.gz
Wind_Speed
34 36 38 39 40 41 43 47 46 42 41 40 36 32 29 24 22 20 17 14 11 10
30 35 36 38 41 43 41 41 44 43 40 37 35 32 30 25 21 18 15 12 10 8
28 35 36 34 35 36 38 38 39 41 38 35 34 31 29 25 19 14 13 12 10 10
27 31 34 34 34 34 34 36 36 37 37 37 36 32 28 24 21 15 10 10 8 7
23 26 29 29 31 33 33 33 34 36 34 33 32 28 25 21 16 15 11 7 7 11
21 24 26 26 27 28 29 29 28 29 29 30 29 25 20 15 14 10 8 9 11 10
16 19 21 22 21 23 25 26 27 28 30 29 25 20 17 14 13 8 7 6 6 8
13 18 21 23 25 25 29 31 32 32 30 28 24 19 15 12 9 7 4 6 6 9
23 26 27 30 33 31 30 31 31 30 27 22 18 14 10 7 6 3 5 6 6 7
24 26 26 28 32 33 33 33 31 28 25 23 19 14 9 6 1 4 6 4 4 4
23 27 29 31 29 32 34 33 31 26 21 18 16 11 4 4 4 3 3 2 3 6
25 24 24 28 27 27 32 30 25 20 17 14 12 11 10 4 2 1 3 3 5 7
19 22 23 26 26 26 26 22 19 16 12 11 12 9 6 1 4 5 5 5 8 11
22 25 25 24 23 23 20 19 16 14 12 9 8 6 2 2 4 5 6 10 13 13

GFSNIL_925_spd_030.txt.gz
Wind_Speed
30 34 35 35 34 38 41 46 47 47 45 46 46 41 36 34 31 26 20 18 13 14
23 28 31 33 35 37 37 38 42 43 44 41 41 37 37 34 31 27 23 18 18 14
18 24 27 29 32 34 34 33 35 38 41 39 36 34 35 32 28 25 25 22 20 15
16 18 21 26 29 29 29 29 30 32 34 34 32 32 32 30 28 23 20 17 15 10
15 12 16 21 23 23 23 23 26 27 27 29 31 32 31 29 26 21 17 13 8 9
12 10 10 14 15 16 18 20 22 24 27 29 31 32 30 28 24 20 15 8 9 4
8 7 7 11 14 16 18 19 21 24 26 28 29 30 28 24 18 14 11 9 5 5
5 1 9 14 17 21 23 25 26 27 27 28 30 25 23 19 16 12 9 5 4 5
13 17 19 19 20 22 25 26 26 27 30 29 27 23 22 20 17 13 7 4 5 5
14 19 20 21 22 23 25 26 30 30 31 28 25 20 18 16 13 8 3 3 8 4
16 20 21 23 25 25 26 27 30 28 28 28 21 17 13 9 10 8 5 6 2 1
14 18 21 24 25 25 28 26 25 24 23 22 18 13 13 12 10 8 5 2 3 4
19 23 26 26 27 25 25 24 22 20 17 15 15 11 10 9 4 3 2 2 5 8
20 22 23 24 24 22 21 20 18 18 14 12 10 9 6 2 3 2 3 5 8 8

GFSNIL_925_spd_033.txt.gz
Wind_Speed
17 23 23 29 31 32 35 36 35 42 45 46 46 46 46 45 42 38 37 29 27 23
13 15 21 23 27 30 31 32 32 36 40 42 40 39 40 36 37 35 33 29 26 22
15 14 17 20 23 26 28 29 29 28 31 31 32 32 33 35 32 30 30 28 26 21
14 13 11 15 17 20 21 22 24 24 25 27 25 26 30 30 34 36 29 24 22 18
12 10 8 8 11 13 15 16 18 20 21 22 24 28 30 27 28 31 28 24 19 16
11 9 7 7 5 9 11 14 16 17 19 21 23 25 25 27 29 30 27 23 18 15
9 8 8 7 7 5 9 12 13 16 19 21 22 25 28 30 30 27 22 19 17 14
11 6 8 5 3 6 10 13 15 19 21 23 23 25 29 30 27 25 22 15 12 8
11 10 10 9 10 13 13 15 16 18 21 23 25 26 26 25 21 18 17 14 9 6
11 11 12 12 12 15 17 19 21 22 24 27 25 22 22 21 20 16 13 10 6 4
11 13 12 13 17 20 22 24 27 28 27 25 21 22 20 19 16 13 10 8 8 6
12 14 15 18 20 22 25 26 26 27 25 23 19 15 14 14 14 13 10 7 4 1
14 18 20 20 22 24 26 26 25 23 21 19 18 15 15 13 11 10 8 5 0 4
17 19 20 21 22 23 23 23 22 21 18 17 12 8 7 6 7 4 3 1 4 4

GFSNIL_925_spd_036.txt.gz
Wind_Speed
10 14 20 22 23 24 24 22 22 24 29 31 29 29 28 29 32 33 34 33 32 35
10 11 14 16 19 20 22 22 22 21 22 26 27 27 26 28 28 27 28 29 32 35
11 11 12 13 14 15 17 17 16 18 19 22 25 25 25 23 23 24 25 24 29 28
12 10 9 9 10 10 11 12 13 14 15 17 20 25 27 24 24 22 23 26 28 25
11 11 9 8 8 8 9 9 10 12 13 14 16 18 23 26 25 26 22 19 19 18
9 9 9 7 6 5 4 5 4 5 6 8 10 13 17 17 18 20 22 21 21 18
10 10 8 7 5 4 3 4 4 4 2 1 3 8 15 19 21 21 21 22 19 17
10 9 9 8 7 5 7 9 9 8 6 7 9 10 16 19 22 25 24 20 18 15
9 10 10 9 9 10 10 11 11 10 7 9 10 11 12 19 25 24 22 20 16 14
10 12 11 12 13 15 15 13 14 14 15 19 19 18 17 19 20 20 17 14 12 11
11 13 12 15 16 16 18 20 21 22 22 22 18 19 18 17 17 16 15 10 8 6
10 13 14 17 17 17 19 20 22 21 21 20 17 18 16 15 14 13 11 7 5 5
15 16 18 17 19 20 22 23 22 21 18 15 16 15 14 11 10 10 6 5 3 1
18 19 18 18 19 20 21 20 19 18 15 11 10 10 9 6 5 4 3 2 1 2

GFSNIL_925_spd_039.txt.gz
Wind_Speed
10 11 13 16 19 20 19 19 18 22 25 30 32 31 29 29 30 29 32 33 29 30
10 11 12 12 14 16 17 19 20 17 19 23 28 32 29 30 27 27 27 26 25 21
10 10 10 10 12 11 12 14 17 18 23 19 20 25 27 30 28 26 26 25 24 22
10 10 9 8 8 9 10 11 14 15 14 14 13 17 20 22 22 22 20 22 24 25
10 9 9 9 9 8 8 8 10 8 8 8 10 10 14 16 18 16 17 17 18 18
10 9 9 10 10 9 8 7 6 4 2 2 4 5 5 8 8 11 13 15 16 18
10 10 10 10 10 10 10 9 8 7 5 4 2 1 4 7 9 10 11 13 15 17
10 10 10 11 11 10 11 9 8 8 8 7 6 5 4 8 8 11 13 14 15 14
8 9 11 11 12 12 12 10 10 11 9 11 12 11 6 5 10 14 17 18 17 15
9 11 14 13 13 14 14 15 19 19 19 22 19 15 15 11 14 15 15 15 14 12
13 13 11 11 14 15 17 21 21 22 23 24 20 17 16 14 14 14 13 10 8 6
12 12 13 15 16 17 20 21 21 20 19 20 18 16 14 14 12 11 10 7 7 4
13 16 17 17 19 19 20 20 18 18 15 14 15 14 15 13 9 8 4 4 1 2
13 14 15 16 15 16 17 16 15 14 11 11 11 10 9 7 4 4 3 2 2 3

GFSNIL_925_spd_042.txt.gz
Wind_Speed
12 13 12 12 13 14 16 19 15 12 22 25 24 25 31 33 34 34 37 39 33 35
12 12 13 13 12 14 14 10 14 15 11 13 19 19 22 28 30 31 33 35 35 31
13 11 11 9 9 11 12 13 12 13 14 12 10 12 17 23 25 25 28 27 26 27
13 11 9 10 13 11 10 10 10 12 15 16 16 13 11 11 12 12 12 17 20 24
12 11 12 11 11 9 8 7 7 7 6 7 8 10 10 10 10 10 12 12 14 16
13 13 12 9 8 9 10 9 8 7 6 5 4 4 5 6 5 6 6 8 11 12
12 10 12 9 9 8 7 9 11 12 11 10 9 5 2 1 1 1 3 3 6 7
9 8 8 9 9 9 11 10 10 10 12 13 12 11 7 6 5 5 6 6 5 5
9 8 8 9 9 11 15 15 15 16 17 18 16 11 9 6 9 10 12 14 14 12
9 8 9 10 12 16 18 18 20 21 21 20 16 14 14 12 14 15 14 13 12 9
9 9 9 12 16 17 19 21 20 18 18 19 16 15 13 12 14 15 13 10 9 6
10 12 13 16 16 18 19 18 17 16 16 17 16 14 13 12 12 11 10 10 9 8
15 16 16 16 16 16 15 15 15 16 15 14 14 12 11 11 11 10 9 6 6 4
13 14 13 12 11 12 13 15 15 13 13 12 12 10 9 8 6 6 5 4 4 2

GFSNIL_925_spd_045.txt.gz
Wind_Speed
10 11 10 10 10 8 8 7 6 6 4 7 14 18 22 19 23 27 30 34 34 34
10 10 9 6 6 8 9 9 11 10 7 5 10 12 14 15 17 22 25 29 31 33
11 9 5 7 10 10 10 10 10 10 10 9 7 8 9 10 13 16 17 21 22 26
10 10 9 8 9 9 9 9 7 8 8 9 8 9 9 9 9 12 11 11 13 17
8 8 8 7 7 6 5 7 8 6 6 8 8 7 7 8 9 9 10 10 9 12
10 9 9 7 5 5 5 7 8 9 10 9 7 6 6 6 6 7 7 6 5 4
10 10 9 7 8 8 8 9 9 10 11 10 10 8 5 5 4 4 3 3 3 3
7 6 7 9 8 8 8 9 9 11 12 12 11 11 8 7 8 9 9 8 7 8
6 7 7 7 8 10 11 13 15 16 15 17 16 13 11 9 11 11 11 11 11 11
6 7 9 11 12 13 12 13 16 17 18 18 16 14 14 12 14 14 12 11 9 9
6 8 10 12 12 13 13 14 16 17 17 18 15 13 12 12 12 11 10 8 7 7
9 10 12 13 13 13 14 15 15 14 13 15 14 12 13 12 11 10 10 10 9 8
11 13 14 13 12 13 13 14 13 14 15 14 13 11 8 8 8 7 6 6 5 5
13 13 13 12 11 12 14 12 11 10 9 9 8 10 9 7 6 5 4 4 4 3

GFSNIL_925_spd_048.txt.gz
Wind_Speed
6 6 5 5 3 3 5 6 8 8 7 7 7 11 13 13 15 15 18 18 24 28
5 4 2 3 5 7 7 7 8 8 8 7 6 7 8 7 10 12 13 15 17 22
6 4 3 3 5 7 6 6 6 6 6 6 7 6 5 4 6 7 9 9 13 17
5 4 3 5 6 6 7 8 7 7 6 6 5 5 3 3 3 4 4 7 6 7
3 2 3 5 6 5 7 8 8 8 7 7 6 6 5 6 6 8 7 6 6 6
5 5 5 4 3 4 6 7 8 9 9 9 8 6 5 3 4 4 4 5 5 5
6 6 6 5 6 7 8 9 10 10 10 10 10 9 8 7 7 7 6 6 6 6
3 3 5 6 8 9 9 10 11 12 13 13 15 13 9 8 10 10 11 12 12 13
3 4 5 7 8 10 11 12 13 15 18 16 16 13 12 11 13 13 12 13 12 10
5 7 8 9 11 12 14 13 15 16 16 15 15 13 13 11 12 11 11 10 10 10
6 8 10 12 13 13 13 13 14 14 14 14 13 11 11 10 9 9 10 11 11 11
7 10 12 13 12 11 13 13 12 12 11 11 11 10 11 9 9 9 9 9 10 10
9 11 12 12 12 12 11 11 12 13 12 10 10 9 7 6 5 5 6 6 6 6
10 12 12 11 11 10 9 9 8 9 8 7 7 6 6 6 6 5 5 5 5 5

GFSNIL_925_spd_051.txt.gz
Wind_Speed
5 4 3 3 2 3 5 7 8 9 8 8 7 6 9 10 11 13 12 11 14 15
5 3 2 1 1 3 5 7 9 10 9 8 8 7 5 4 6 6 7 7 9 14
2 1 2 1 2 3 5 6 6 5 5 5 5 4 3 1 2 3 2 3 4 6
1 2 1 2 3 4 4 5 5 5 5 5 6 5 4 5 4 4 4 5 6 4
1 1 0 1 2 3 3 5 5 5 6 7 7 7 6 6 8 8 9 9 6 6
2 2 1 2 2 2 4 5 6 6 7 8 8 8 8 8 8 6 6 6 6 7
3 3 3 4 5 5 7 7 8 9 9 10 10 10 10 10 10 10 10 11 12 12
2 2 2 4 6 8 9 10 10 11 14 14 15 13 12 13 14 15 15 15 15 15
2 3 3 4 6 8 9 10 11 15 14 17 16 14 15 15 16 15 14 12 10 9
3 5 6 8 9 10 11 12 12 13 15 16 15 14 15 13 14 15 13 11 10 9
4 6 8 10 11 12 11 11 12 13 12 13 13 12 12 11 11 11 11 11 11 9
6 9 10 10 11 11 12 11 10 10 9 11 11 9 9 9 9 8 9 8 8 9
10 10 10 10 11 12 10 10 9 11 10 9 9 7 6 7 6 6 6 5 4 4
12 12 11 11 10 10 9 11 11 10 7 5 4 5 5 6 7 6 6 6 6 7

GFSNIL_925_spd_054.txt.gz
Wind_Speed
4 5 5 5 3 4 5 7 9 10 10 10 10 9 8 7 9 10 11 10 11 14
4 4 5 4 3 2 3 6 8 8 8 8 7 6 4 3 2 2 2 2 4 6
0 1 2 3 2 0 3 4 5 4 4 3 3 1 2 3 2 5 1 0 1 1
2 2 2 2 1 1 3 3 3 3 3 4 4 5 5 6 6 6 6 7 5 2
2 3 2 2 1 1 1 1 1 2 3 4 5 5 6 8 9 8 8 7 3 3
3 2 2 1 1 1 2 3 3 3 4 5 6 6 8 8 9 11 11 10 10 10
3 3 3 3 3 4 5 5 5 5 6 7 7 8 8 9 10 12 13 15 16 16
4 3 2 2 4 6 7 7 8 10 11 12 10 9 10 12 14 15 15 15 15 16
5 5 4 5 6 6 8 8 9 12 12 14 13 12 12 14 14 13 12 12 12 10
6 6 7 8 9 9 11 11 11 12 13 13 12 11 12 12 14 14 13 13 13 11
8 9 10 10 11 12 12 12 11 11 11 12 11 11 11 11 11 12 12 12 11 10
10 12 13 12 12 12 12 11 10 8 9 10 10 7 7 7 7 8 8 8 8 8
11 13 14 13 13 12 11 10 8 9 9 9 8 4 5 5 5 6 6 5 4 3
12 13 12 13 14 12 11 12 12 9 7 5 4 4 2 4 5 6 5 5 5 6

GFSNIL_925_spd_057.txt.gz
Wind_Speed
4 5 6 6 6 5 5 6 8 9 10 11 11 10 8 7 9 10 13 14 13 12
4 5 6 6 6 5 4 5 7 8 8 8 8 7 5 5 5 4 4 4 6 8
3 4 5 6 6 4 3 3 4 4 4 4 3 3 3 4 4 5 3 1 1 2
5 5 5 5 5 4 3 2 2 2 1 2 2 2 3 4 5 5 4 3 2 2
6 6 7 7 6 4 3 2 1 0 1 2 3 5 6 7 8 8 7 6 5 3
7 7 7 6 6 4 3 2 2 2 2 3 4 6 8 8 9 9 9 9 8 6
8 7 6 5 5 5 6 5 4 3 3 4 5 7 8 10 11 13 13 13 12 11
7 7 6 4 5 6 7 6 7 7 8 7 7 8 12 14 14 14 14 13 13 14
9 8 7 7 7 7 7 8 10 10 11 11 11 11 11 14 14 13 12 13 10 8
10 9 9 9 10 10 11 12 13 13 12 12 12 12 12 14 14 13 12 12 10 8
10 9 10 11 12 13 13 13 13 13 13 13 12 11 12 11 11 11 11 10 8 7
11 11 12 13 14 14 14 14 13 13 13 14 13 9 9 9 8 8 7 5 5 5
12 13 14 15 15 15 15 14 12 12 12 11 11 7 6 6 6 6 4 3 3 2
14 15 15 16 15 16 15 14 14 13 11 10 8 8 5 4 3 4 3 1 1 1

GFSNIL_925_spd_060.txt.gz
Wind_Speed
5 5 5 5 5 5 5 5 7 8 9 10 11 11 10 10 11 13 14 16 16 17
4 5 5 6 6 5 6 6 7 7 8 9 9 9 8 7 7 8 7 6 7 9
4 5 5 6 5 6 6 6 6 6 6 6 6 6 4 7 7 6 4 1 2 3
4 4 5 5 5 5 6 5 5 5 5 4 3 3 0 4 6 5 3 3 3 2
4 4 5 5 5 5 4 4 5 5 4 3 3 1 2 3 4 4 5 4 4 3
5 5 6 6 5 4 4 3 3 2 2 3 3 2 3 4 5 5 5 5 5 4
7 6 6 5 4 4 4 3 2 2 1 2 3 3 4 5 7 7 7 7 8 7
7 7 6 4 4 4 4 4 3 3 2 3 3 5 7 7 9 9 9 9 10 11
9 8 8 8 7 6 6 6 6 5 4 4 5 7 9 9 9 9 8 8 8 7
10 9 8 9 10 9 9 9 8 7 6 6 7 8 10 11 10 10 10 9 7 5
11 10 9 10 11 11 11 10 11 9 8 7 7 9 10 10 11 11 10 8 6 4
12 12 11 12 13 14 14 12 11 11 10 11 10 9 9 8 8 8 7 5 3 3
12 12 14 15 16 15 14 12 10 12 12 10 9 7 6 6 5 4 4 4 3 3
13 14 16 16 16 15 15 12 11 11 11 10 8 7 7 5 4 3 5 5 5 4

GFSNIL_925_spd_063.txt.gz
Wind_Speed
6 5 4 4 4 5 5 5 7 8 8 9 10 11 11 11 12 13 14 16 15 17
5 4 3 3 4 4 5 5 6 7 8 9 10 9 9 9 11 10 8 10 10 10
5 3 3 3 4 4 4 4 4 5 6 7 8 7 6 7 9 9 8 4 2 1
5 3 3 3 4 4 4 4 4 5 5 5 6 5 3 4 7 8 7 6 5 4
7 5 4 4 4 4 4 4 5 5 5 4 4 4 2 2 0 2 1 0 1 1
6 5 5 5 5 5 5 4 4 5 4 4 4 2 1 1 2 3 4 3 3 3
6 6 6 6 6 6 5 5 4 3 3 3 3 4 4 2 3 4 6 6 6 5
7 6 6 6 6 5 5 4 4 3 4 4 3 2 4 5 5 5 7 6 6 9
7 7 7 7 6 6 5 5 5 4 3 2 2 4 5 6 7 6 6 8 8 7
9 9 9 8 7 7 8 7 6 5 4 2 3 5 8 8 8 9 8 7 7 5
10 8 8 8 9 10 10 9 8 6 6 6 4 5 7 8 8 9 8 6 5 3
10 10 10 10 12 12 12 11 10 9 8 7 6 7 6 7 8 7 5 4 3 2
11 11 12 12 13 13 13 12 10 10 9 9 8 7 7 6 3 4 4 4 3 4
12 11 13 13 14 15 14 13 10 10 11 10 9 8 7 5 6 5 5 5 4 3

GFSNIL_925_spd_066.txt.gz
Wind_Speed
17 14 10 10 10 8 7 6 9 10 8 8 10 11 11 11 12 11 13 12 12 13
17 16 12 10 8 9 11 11 11 8 7 8 9 9 9 9 8 7 9 12 12 12
20 17 13 9 8 8 8 8 7 7 7 7 8 7 7 7 8 9 10 8 6 3
11 13 12 10 11 10 9 9 7 7 7 7 7 5 3 5 7 7 8 7 7 5
11 9 9 9 9 8 6 8 8 7 6 6 6 5 3 3 2 5 4 3 4 4
9 9 8 8 8 8 8 7 6 5 5 7 7 6 6 4 4 5 6 6 6 5
11 9 10 9 8 7 7 7 5 6 6 6 6 6 6 7 7 6 6 5 6 7
12 10 9 7 7 7 7 6 8 8 6 6 5 5 5 6 7 6 6 4 4 4
10 8 8 7 8 8 7 8 8 6 5 4 4 5 6 7 8 9 9 9 9 7
11 10 9 7 7 7 8 8 8 6 6 5 4 5 7 8 10 11 11 11 9 6
15 15 13 11 11 11 10 9 9 7 6 6 5 6 8 9 9 10 9 9 7 4
18 17 15 13 14 12 10 10 10 8 9 7 6 7 8 9 10 10 8 7 6 3
18 16 14 13 13 12 12 12 10 10 10 9 10 10 7 7 6 7 5 5 4 6
17 14 14 14 14 13 13 13 12 11 11 12 11 10 8 9 7 5 5 4 4 4

GFSNIL_925_spd_069.txt.gz
Wind_Speed
20 22 22 20 17 15 13 14 13 12 8 10 9 10 11 12 12 12 12 13 14 14
18 19 20 20 20 21 16 13 12 11 11 10 9 10 11 11 10 10 10 11 10 14
22 21 18 18 20 20 15 13 12 10 9 8 8 9 9 9 9 9 9 9 9 9
16 14 12 12 12 11 13 11 9 7 8 8 8 8 8 10 11 10 10 9 10 9
14 14 14 12 11 9 7 7 7 7 7 8 9 7 8 9 9 9 8 9 9 8
16 15 13 13 11 9 8 7 7 8 8 9 9 8 8 8 8 9 10 10 9 10
15 12 11 11 10 8 7 7 8 8 9 9 8 8 9 9 9 9 8 8 8 9
15 14 14 13 12 10 10 10 9 9 8 7 8 9 9 10 10 11 9 7 6 5
19 18 16 14 12 11 10 10 10 9 8 7 7 8 8 10 11 10 10 10 8 7
21 19 17 14 12 11 10 10 10 9 8 8 6 5 6 9 11 11 11 11 11 8
22 19 16 14 13 10 11 11 10 9 9 9 6 7 8 9 10 11 10 11 9 6
24 21 20 18 16 14 13 12 11 10 10 10 8 8 9 11 11 12 12 10 9 6
24 22 22 18 15 16 15 13 13 12 12 11 10 8 9 9 11 12 12 10 7 5
23 22 20 17 17 17 16 15 14 14 13 13 12 12 12 10 10 10 10 10 10 10

GFSNIL_925_spd_072.txt.gz
Wind_Speed
22 25 27 29 27 25 26 23 20 17 15 14 15 13 12 13 14 15 16 16 16 17
18 21 22 20 17 16 15 17 18 20 17 15 13 13 12 13 14 14 14 13 13 16
16 18 20 21 21 19 19 17 15 14 14 13 12 12 13 12 12 13 13 12 13 13
16 18 17 16 14 14 16 15 14 14 13 11 9 10 11 11 11 12 13 13 13 13
16 14 14 14 14 14 14 12 11 12 12 10 9 9 10 11 11 12 11 12 12 12
16 14 14 14 14 13 11 10 11 11 12 10 10 10 9 9 10 10 10 10 10 12
15 14 13 13 13 12 10 11 12 11 11 10 10 10 9 9 9 9 9 10 10 12
15 14 14 14 14 13 11 11 11 11 11 9 9 9 10 9 9 9 9 9 9 7
16 16 16 15 14 13 12 12 12 12 10 10 9 10 10 10 11 12 12 9 8 6
19 19 18 16 15 14 13 12 12 11 11 10 10 9 8 8 10 12 11 10 10 9
22 21 19 17 16 14 13 14 13 12 11 11 10 7 8 9 10 11 11 11 11 9
25 23 21 19 18 16 14 14 14 12 12 12 10 10 9 10 11 12 12 12 12 9
25 25 24 22 19 18 15 15 13 13 13 13 12 10 9 11 13 14 15 14 12 10
23 24 24 21 20 18 14 14 14 15 14 14 13 12 11 11 12 14 14 14 13 11

GFSNIL_925_spd_075.txt.gz
Wind_Speed
24 26 23 22 24 22 21 21 21 18 14 11 11 11 12 12 13 14 14 15 16 16
16 17 20 23 23 24 22 21 19 17 15 13 11 11 13 11 13 14 13 14 13 14
14 15 15 15 17 19 20 22 20 19 18 15 13 12 13 13 13 14 14 13 12 13
11 11 12 15 16 14 12 13 14 13 12 11 12 12 13 14 14 14 14 13 13 13
11 11 11 11 11 11 13 14 13 12 10 10 11 12 13 13 14 14 14 13 13 13
13 13 12 11 11 12 13 11 10 9 9 10 11 11 11 12 12 13 13 11 11 9
14 13 12 12 12 12 12 11 11 10 10 10 10 10 10 10 11 11 10 9 8 10
13 12 12 12 13 12 12 11 11 10 10 9 9 8 8 10 11 10 11 9 9 10
15 14 14 14 14 13 11 10 10 9 9 9 9 9 9 11 11 13 13 12 10 9
18 17 17 16 16 15 13 10 10 10 10 10 10 10 10 10 10 11 13 12 10 8
20 20 18 18 17 15 13 12 11 11 11 11 10 9 9 9 10 10 11 11 10 9
24 22 21 20 19 17 14 13 11 11 11 11 10 9 9 11 9 10 11 11 10 9
27 25 25 24 21 19 17 13 10 11 11 11 12 10 10 12 12 12 12 11 11 10
22 24 24 23 22 20 17 14 11 12 11 12 13 12 11 12 11 13 14 13 13 11

GFSNIL_925_spd_078.txt.gz
Wind_Speed
12 16 18 20 20 20 19 27 21 17 17 17 17 15 15 10 8 8 10 11 11 13
10 11 13 15 15 17 17 19 19 22 20 17 16 16 13 12 10 9 10 11 11 13
9 10 10 10 10 13 16 17 19 19 16 17 17 13 9 8 8 8 9 9 10 10
9 9 9 9 9 10 13 15 14 13 13 13 9 8 8 6 6 7 8 9 10 11
8 8 7 7 8 9 11 11 13 15 13 10 9 7 6 6 5 6 7 9 10 11
8 8 8 9 9 10 12 13 13 13 12 11 8 7 5 5 5 7 8 9 9 9
8 9 8 8 8 10 11 11 11 10 9 7 6 5 4 4 5 6 7 7 7 6
9 10 10 10 10 11 11 11 11 10 9 7 6 4 3 3 6 7 7 9 8 8
14 14 14 14 14 14 13 12 11 10 9 7 6 5 5 5 5 5 8 10 10 8
18 19 18 16 16 16 15 13 12 10 9 8 7 6 6 5 6 7 6 8 10 9
22 22 19 19 19 18 17 15 14 12 10 9 8 7 7 5 6 7 7 8 9 9
19 23 23 23 22 20 18 17 16 13 12 11 9 8 6 9 7 6 7 8 10 10
17 23 26 26 24 22 20 17 15 13 12 11 10 9 9 11 9 8 8 9 10 10
15 19 26 26 23 23 20 17 16 12 11 12 12 11 12 12 12 11 10 13 12 11

GFSNIL_925_spd_081.txt.gz
Wind_Speed
4 7 8 10 15 21 24 24 19 20 18 13 16 21 22 23 22 15 12 9 8 8
3 4 4 6 10 13 15 19 20 20 17 16 23 22 19 16 15 13 10 8 8 9
3 3 4 5 6 8 12 15 17 19 19 21 18 17 16 14 12 10 7 8 8 8
4 3 3 4 5 6 9 12 15 18 20 19 18 15 14 13 10 9 9 8 8 8
7 4 3 4 5 7 8 11 14 17 18 18 18 16 13 11 10 9 8 7 7 7
5 5 5 4 6 7 9 13 16 18 19 19 17 15 12 10 8 7 6 6 6 7
6 5 5 6 8 10 13 15 18 18 18 17 14 12 11 10 8 5 5 4 3 4
12 7 6 7 8 10 11 13 14 15 15 14 13 12 10 7 5 2 1 4 5 5
15 13 11 10 10 11 13 14 15 14 13 12 11 9 9 8 6 5 4 4 7 8
17 16 16 14 14 13 14 14 15 14 13 13 13 12 11 9 9 8 7 6 5 9
19 16 17 17 19 18 18 18 17 16 15 14 12 12 11 10 9 8 8 8 8 10
20 18 16 21 21 20 19 19 19 18 16 15 14 14 13 12 11 9 8 9 11 12
21 18 17 22 24 23 22 22 18 17 17 15 14 15 15 16 13 11 10 10 11 12
21 18 16 17 23 24 24 21 20 20 18 17 17 16 16 17 16 15 13 14 14 14

GFSNIL_925_spd_084.txt.gz
Wind_Speed
15 21 25 27 27 29 31 35 35 31 30 30 30 23 23 21 22 20 20 18 17 13
6 8 12 14 18 21 22 26 27 29 30 30 26 23 21 21 22 21 20 18 16 14
1 4 6 9 11 12 11 15 17 23 28 26 23 20 19 18 18 19 18 16 13 12
3 2 3 5 7 9 12 14 17 19 23 22 20 20 19 18 18 18 16 15 12 11
5 4 2 4 6 7 6 10 13 17 20 20 20 20 21 22 21 18 16 14 13 11
10 8 5 3 4 6 8 9 12 15 18 21 23 22 21 20 19 17 14 14 13 11
11 10 8 6 4 4 6 8 11 13 16 18 20 21 19 17 16 14 13 12 11 10
13 11 10 8 6 6 7 9 11 14 15 17 17 17 19 18 14 12 11 9 9 10
13 11 10 10 10 10 10 11 11 13 14 15 17 18 18 16 14 12 11 10 8 8
13 12 10 11 12 14 14 14 15 13 13 16 15 19 18 16 12 13 12 12 12 11
13 13 11 11 15 15 15 17 19 18 17 15 15 19 19 18 14 16 15 15 13 14
15 15 13 12 14 16 16 17 20 20 20 19 17 21 20 18 16 13 13 12 13 12
19 17 16 14 12 15 17 22 19 21 22 21 19 21 21 20 16 14 10 9 11 15
17 18 18 17 13 13 15 17 19 20 20 20 20 17 20 20 16 13 13 10 11 12

GFSNIL_925_spd_087.txt.gz
Wind_Speed
28 32 35 33 29 30 29 28 28 31 27 24 24 22 25 24 24 24 22 19 17 20
16 23 22 22 23 23 24 26 28 31 33 27 25 29 27 30 29 25 24 22 20 18
2 3 4 8 14 19 24 28 29 31 31 28 29 30 30 28 29 26 25 22 19 16
6 2 2 4 7 10 12 15 17 20 24 29 30 30 27 25 26 24 23 20 18 17
7 6 4 3 6 8 9 11 11 13 17 23 26 26 25 23 27 26 24 21 19 16
7 5 4 5 5 6 8 10 11 12 15 19 21 21 22 24 24 22 21 20 18 17
9 8 7 6 5 6 6 7 9 10 13 16 19 21 20 20 20 20 17 16 16 15
12 11 10 8 7 6 7 7 7 9 12 15 17 20 20 19 18 16 15 15 15 15
11 12 12 11 10 10 9 9 10 11 11 13 15 18 18 18 18 16 15 15 13 13
11 11 11 12 11 12 12 11 12 12 14 14 15 17 19 16 14 14 14 14 15 14
14 15 15 14 12 12 13 14 14 15 15 15 16 16 20 19 14 15 17 17 16 14
15 17 18 18 17 16 14 14 15 16 15 17 18 18 21 21 21 17 15 16 16 13
14 13 15 17 19 18 17 17 16 16 19 20 19 19 23 22 19 16 16 13 14 14
17 17 16 16 16 17 18 18 18 18 22 23 22 20 24 25 20 19 17 13 13 14

GFSNIL_925_spd_090.txt.gz
Wind_Speed
22 20 21 20 17 18 23 25 25 28 22 25 17 17 22 16 21 20 17 24 23 23
14 24 25 26 29 26 24 25 25 26 25 22 23 24 27 21 24 22 24 25 25 23
3 1 6 17 20 23 26 23 26 27 27 28 33 31 28 28 29 28 28 29 27 26
7 4 2 0 4 9 11 11 14 20 23 23 29 31 31 31 29 29 31 27 29 27
10 9 8 5 5 7 9 10 15 16 16 19 24 29 32 33 30 30 28 29 29 27
10 9 9 8 8 7 9 10 11 12 17 18 21 24 27 29 30 27 29 28 28 28
12 12 13 11 11 11 11 10 9 12 13 16 19 21 23 23 24 24 24 24 23 23
14 14 14 14 12 12 13 12 11 12 14 15 17 19 21 21 21 23 22 21 20 19
17 16 15 14 15 12 13 15 14 14 15 15 17 18 19 20 21 22 21 21 19 18
15 16 16 16 16 16 15 16 17 17 16 18 16 17 19 20 20 20 20 19 18 18
14 16 16 17 17 17 17 16 18 18 18 19 19 19 18 20 18 19 19 18 19 18
14 16 16 17 17 17 17 17 17 20 19 20 21 21 19 22 21 21 20 19 19 18
11 11 12 14 17 18 18 20 19 20 20 20 21 22 22 23 26 24 22 21 21 19
16 15 14 15 15 16 19 19 20 20 20 21 21 23 24 25 28 29 26 24 22 23

GFSNIL_925_spd_093.txt.gz
Wind_Speed
4 9 6 6 20 18 16 23 27 27 23 19 17 26 22 21 22 19 23 25 25 24
7 3 7 11 13 15 18 18 18 25 30 25 21 27 24 21 19 20 26 28 27 26
4 1 7 14 17 20 25 27 31 31 31 25 24 30 27 23 20 26 22 27 24 22
10 8 5 3 3 4 7 8 11 11 19 27 30 31 30 30 28 24 25 29 28 27
14 12 11 9 8 8 8 8 8 8 9 11 14 19 22 25 28 30 31 30 29 30
16 16 16 14 14 14 14 13 12 11 9 10 13 16 21 24 27 29 33 32 33 33
17 17 17 16 14 13 14 15 16 13 13 12 13 15 17 20 24 28 29 30 30 30
16 16 16 16 17 16 14 13 15 16 15 14 13 14 15 17 20 21 22 22 22 23
17 18 18 18 19 17 16 15 13 14 16 16 16 15 16 17 19 20 20 20 19 19
16 17 18 19 20 20 21 19 18 16 14 17 17 16 16 16 18 20 21 22 23 22
18 19 19 19 18 18 19 21 21 22 19 18 20 18 18 17 19 19 21 21 23 25
17 19 19 21 20 19 18 20 21 22 22 21 21 20 20 19 19 20 21 20 21 24
17 17 18 20 21 23 22 21 21 23 23 22 22 22 20 23 23 24 23 22 23 24
17 18 19 18 20 20 22 21 20 20 20 22 20 20 22 22 25 26 27 27 28 28

GFSNIL_925_spd_096.txt.gz
Wind_Speed
9 3 3 11 17 16 15 9 17 13 11 19 20 18 24 28 27 23 22 28 33 29
18 12 5 4 5 5 5 12 10 11 14 23 28 27 27 27 27 22 25 30 29 29
17 14 12 8 6 4 6 11 13 19 23 27 28 29 26 23 24 22 22 24 24 28
15 15 11 11 10 9 6 6 8 9 10 14 21 27 25 24 26 28 27 27 26 27
13 12 14 13 12 10 10 8 7 8 9 11 14 21 29 29 29 31 30 30 28 29
16 16 15 15 14 13 12 10 9 9 9 9 9 12 16 20 25 29 32 32 32 32
16 17 17 17 16 16 15 14 12 11 11 10 11 13 15 18 19 24 27 30 31 32
18 17 17 17 18 18 18 18 17 15 13 12 12 12 13 15 17 20 23 25 29 31
19 19 20 20 18 18 19 18 18 18 18 16 15 15 15 15 17 19 19 22 24 25
22 22 22 21 22 21 19 18 17 18 20 20 19 18 18 17 17 18 19 21 22 22
19 19 20 22 23 23 22 22 21 21 20 21 20 19 20 19 18 20 21 20 21 22
17 21 23 24 24 23 24 25 25 22 21 22 23 21 19 20 20 21 22 22 22 23
18 19 21 21 23 23 24 25 22 20 19 19 21 21 20 18 20 21 22 24 22 23
20 19 20 20 18 20 19 21 22 23 22 19 17 20 19 18 18 20 22 24 25 25

GFSNIL_925_spd_099.txt.gz
Wind_Speed
14 4 10 10 12 21 20 24 21 23 27 30 33 32 27 27 20 18 20 20 23 24
15 16 15 15 8 10 10 7 4 2 4 7 15 28 24 23 26 26 29 29 27 28
16 17 16 15 15 15 15 10 7 7 10 14 16 16 18 21 23 23 29 31 28 28
16 16 19 18 16 15 13 14 13 10 11 12 11 15 18 23 23 26 27 28 25 27
18 17 17 16 15 15 13 11 11 10 9 10 12 12 20 23 27 28 27 30 28 28
17 20 19 17 18 16 16 16 14 12 12 12 12 13 15 16 15 24 30 29 28 30
18 18 18 18 18 19 19 18 17 15 15 14 14 14 14 15 17 20 22 19 25 29
16 17 19 19 20 20 20 19 19 18 16 16 16 16 16 15 16 19 22 23 22 23
20 21 20 20 19 20 21 21 22 22 21 19 16 14 16 18 19 18 19 23 25 24
15 17 21 24 24 22 20 20 21 21 21 23 23 20 19 17 20 21 21 21 22 25
21 23 24 24 24 23 21 23 22 21 18 18 22 23 21 21 21 21 21 21 22 23
20 21 21 22 23 24 21 23 21 20 19 19 20 20 19 20 22 22 24 23 22 22
19 20 22 24 24 24 22 24 25 25 22 20 19 17 18 18 20 20 20 22 23 22
27 25 24 25 26 27 26 25 23 22 25 27 21 20 18 17 18 18 19 19 22 23

GFSNIL_925_spd_102.txt.gz
Wind_Speed
16 12 8 7 3 5 8 10 15 27 29 30 33 28 29 25 26 24 23 26 24 25
16 18 18 16 15 14 14 14 10 10 10 11 19 29 29 28 26 26 23 19 19 20
18 19 20 20 20 19 18 18 18 18 14 10 11 12 13 15 28 28 30 31 25 25
19 18 19 22 23 21 19 19 18 17 19 17 15 12 13 14 15 20 23 28 27 27
20 20 21 21 21 21 20 18 18 17 17 17 17 16 15 13 13 18 21 24 25 27
20 23 22 21 20 21 20 20 19 19 18 19 19 18 17 18 18 17 16 14 21 26
19 19 19 19 20 20 20 21 21 21 20 20 20 18 19 20 20 20 20 20 19 20
16 17 19 20 20 19 21 21 22 22 22 22 21 20 20 21 23 23 23 21 21 21
17 17 18 19 21 20 20 19 20 21 21 21 21 21 20 18 22 23 24 24 24 24
18 21 22 22 23 24 24 23 24 23 22 22 23 22 21 20 19 22 22 23 25 26
20 20 19 20 21 23 23 23 23 22 20 20 23 24 23 22 22 22 23 24 24 25
14 15 16 18 19 19 20 21 21 21 22 22 22 23 21 21 23 23 24 23 24 26
14 15 18 19 22 24 25 23 21 20 19 20 24 24 21 20 20 20 20 21 23 23
17 20 23 25 27 27 26 27 26 24 22 21 20 19 17 17 18 20 21 20 20 22

GFSNIL_925_spd_105.txt.gz
Wind_Speed
18 18 18 18 16 16 15 12 12 8 8 7 13 25 32 34 33 32 35 34 32 28
21 22 23 23 21 20 18 18 18 16 14 12 14 13 17 25 28 30 32 29 29 31
20 18 20 21 20 21 19 20 19 19 18 18 16 18 16 15 13 13 22 31 31 30
19 20 19 18 19 18 20 18 20 17 16 17 18 17 18 16 15 14 16 21 18 26
21 19 20 20 20 17 19 19 19 20 21 19 19 17 19 18 18 19 19 19 16 21
17 18 19 18 18 18 18 19 19 20 20 21 21 20 19 18 19 17 16 20 19 20
10 14 15 16 17 18 17 18 19 19 19 19 19 18 20 19 18 18 18 18 18 19
12 13 13 14 16 17 17 16 17 19 19 19 18 16 20 20 19 19 19 17 16 18
13 14 14 15 15 16 17 18 19 18 18 19 19 20 20 19 19 18 18 20 21 19
13 14 16 17 19 20 21 21 21 21 21 21 22 21 20 19 18 20 19 20 21 23
17 17 17 18 18 18 19 19 20 19 18 19 20 20 20 20 20 20 21 21 23 22
14 15 17 18 19 20 21 23 23 22 21 19 19 19 20 20 19 20 21 20 20 20
15 16 19 20 23 23 22 23 23 23 22 20 19 19 18 18 17 17 17 19 20 19
14 16 18 20 19 22 23 22 24 23 25 22 20 23 24 22 18 18 19 19 19 19

GFSNIL_925_spd_108.txt.gz
Wind_Speed
16 19 19 17 14 14 11 11 11 11 8 10 8 6 7 13 27 31 32 33 33 33
19 21 18 17 16 14 13 12 13 13 12 12 13 12 12 12 15 12 24 32 34 33
18 18 15 15 15 14 12 12 14 14 15 15 16 14 15 16 15 17 15 16 16 24
19 17 13 11 13 12 11 13 15 15 16 17 16 17 17 17 18 18 20 20 21 19
16 15 12 12 13 11 12 15 15 15 15 14 14 14 16 16 15 17 17 20 21 22
11 12 14 14 13 13 13 14 14 13 13 13 14 14 14 15 16 15 14 15 16 17
11 10 9 10 11 13 13 13 14 14 14 15 15 13 16 17 16 17 16 15 15 15
7 6 7 9 11 12 12 12 13 14 14 14 14 13 16 17 17 16 17 16 15 15
6 7 8 9 10 11 11 11 12 13 13 14 13 14 15 16 18 18 18 18 17 17
7 8 9 10 11 12 13 13 14 14 15 15 16 17 19 19 18 18 18 18 19 19
8 10 11 12 13 14 15 15 16 16 15 15 15 15 16 18 17 17 18 18 19 19
10 12 13 14 15 15 15 15 15 15 15 14 15 14 14 14 15 15 15 16 18 19
10 12 14 14 14 13 14 15 15 16 14 14 15 13 14 16 16 17 17 17 16 16
11 12 12 12 12 13 14 15 15 16 16 14 13 13 14 16 17 17 20 20 20 19

GFSNIL_925_spd_111.txt.gz
Wind_Speed
15 18 17 12 15 17 13 13 11 9 8 7 6 6 9 7 8 10 15 23 27 28
19 17 14 18 20 19 16 13 12 11 11 11 12 11 12 11 13 15 14 14 16 15
16 17 17 17 18 16 15 14 14 15 15 15 14 14 13 14 15 17 16 17 19 17
16 16 15 15 15 16 15 14 15 14 14 16 17 14 16 18 18 18 18 18 19 19
11 11 12 13 13 11 10 11 11 12 12 12 13 14 15 17 17 17 17 16 17 18
10 10 11 11 11 12 12 12 12 12 12 12 12 13 13 12 12 13 14 15 15 16
9 10 11 11 11 12 12 12 13 13 13 13 13 11 12 14 15 16 15 14 14 14
9 10 10 11 11 11 12 12 13 13 13 13 13 10 14 15 16 16 17 16 14 15
9 10 10 11 12 13 13 14 15 15 16 17 14 14 15 16 18 18 17 17 17 17
9 10 10 11 12 13 14 15 15 15 16 17 16 16 17 16 16 17 17 17 17 18
8 9 11 12 13 14 15 15 15 15 15 16 16 15 16 15 16 18 18 17 16 16
9 12 13 14 15 14 14 14 14 14 15 15 16 14 13 12 15 15 16 16 14 14
11 12 12 13 13 13 14 15 14 15 14 14 15 13 11 12 14 16 16 15 16 14
10 12 12 13 14 15 15 15 16 16 15 14 13 14 14 15 16 17 18 18 17 16

GFSNIL_925_spd_114.txt.gz
Wind_Speed
16 21 13 16 21 22 14 17 16 15 14 13 11 9 7 6 7 9 9 10 9 9
20 16 19 21 20 18 12 14 17 18 17 17 15 14 12 11 12 12 14 12 14 16
18 16 17 18 17 15 16 17 18 17 18 17 15 14 13 14 13 14 13 14 15 17
15 16 15 16 14 13 15 18 19 17 16 15 14 14 14 14 12 12 13 14 16 16
12 13 15 16 17 19 19 17 17 16 16 15 13 14 12 14 13 14 16 15 15 15
12 13 13 13 14 14 15 16 16 15 14 15 16 15 13 15 16 17 15 15 15 15
10 10 10 11 12 13 13 13 14 15 14 15 15 12 14 17 16 15 15 14 14 14
11 13 15 15 15 15 15 16 16 17 16 16 14 11 15 16 14 16 15 15 13 14
10 12 13 14 16 16 17 17 17 17 17 17 16 14 14 15 18 18 18 18 18 17
7 9 10 12 14 15 16 17 17 17 17 18 18 15 15 15 17 19 18 20 20 20
5 7 9 10 10 12 14 15 16 18 18 19 19 16 15 15 16 18 20 21 22 21
7 9 10 10 12 13 15 16 17 17 19 18 18 17 15 14 14 18 20 20 18 17
8 10 11 11 13 13 14 16 17 19 18 18 18 14 13 13 14 15 17 17 18 18
8 8 9 11 13 16 17 18 18 17 15 15 14 15 15 16 18 19 19 18 18 19

GFSNIL_925_spd_117.txt.gz
Wind_Speed
21 21 23 24 16 18 15 23 26 27 22 21 16 18 16 14 12 10 9 9 10 9
18 20 21 17 17 21 24 24 22 15 14 16 21 18 18 17 16 14 13 13 12 12
17 17 16 16 18 19 19 22 18 17 18 19 17 16 16 16 15 14 14 13 13 13
14 15 17 19 20 20 19 18 17 17 16 17 17 16 16 14 15 15 15 15 11 10
11 13 15 16 17 17 16 16 17 17 18 18 18 15 16 17 16 15 14 13 13 13
6 8 9 11 12 13 13 14 14 15 15 16 15 12 14 15 14 14 13 12 14 12
4 7 8 9 10 10 11 11 13 12 11 12 12 9 16 17 16 15 12 13 12 13
6 8 10 12 13 13 13 14 14 14 14 14 12 12 13 13 13 14 13 11 12 13
5 7 8 10 12 12 12 12 12 12 12 12 12 10 9 10 12 14 15 16 15 14
4 8 9 10 11 11 12 13 14 14 14 16 16 13 13 12 13 14 16 17 19 20
6 7 8 9 9 11 12 13 14 15 16 16 16 14 15 14 15 16 17 17 18 19
6 7 8 8 8 9 10 13 14 15 16 17 16 16 12 13 14 16 17 17 16 17
7 8 8 8 9 11 12 14 14 14 14 13 14 14 13 14 16 17 18 21 18 16
7 6 6 7 9 10 12 13 13 13 12 14 13 14 14 15 17 18 17 11 14 16